Lexington Weather

Lexington, Massachusetts, USA

34°F
4/16/2021 10:07am 
  • Lexington Conditions: Snow, Fog, Overcast
  • Temperature: 33.8°F / 1.0°CColder 1.1°F than last hour.
  • Dew Point: 32.5°FDecreased 1.1°Fsince last hour.
  • Relative Humidity: 95
  • Wind: Calm, 10-min avg: Calm, gust: None
  • Barometer: 29.50 inRising 0.02  inHg/hr Rising Slowly
  • Visibility: ½ mile
  • Snow Today: 1.3 in
  •   

Regional Weather Roundup
for Boston / Norton, MA

        
000
ASUS41 KBOX 112205
RWRBOX

REGIONAL WEATHER ROUNDUP
NATIONAL WEATHER SERVICE BOSTON/NORTON MA
600 PM EDT SUN APR 11 2021

NOTE:  "FAIR" INDICATES FEW OR NO CLOUDS BELOW 12,000 FEET WITH NO 
SIGNIFICANT WEATHER AND/OR OBSTRUCTIONS TO VISIBILITY.

MAZALL-112300-
EASTERN MASSACHUSETTS
  
CITY           SKY/WX    TMP DP  RH WIND       PRES   REMARKS
BOSTON         CLOUDY    45  39  79 NE15      29.77F                  
BEVERLY        NOT AVBL                                               
LAWRENCE       CLOUDY    44  39  82 E9        29.79S                  
BEDFORD        CLOUDY    47  39  74 NE13      29.75S                  
BLUE HILL        N/A     40  40 100 NE14G23   29.72F                  
NORWOOD        CLOUDY    45  40  82 NE12      29.76S                  
MARSHFIELD     CLOUDY    45  43  93 NE13G18   29.76S                  
PLYMOUTH       CLOUDY    43  41  93 NE12      29.74R FOG              
TAUNTON        CLOUDY    46  41  82 VRB6      29.74R                  
NEW BEDFORD    CLOUDY    47  42  83 NE12      29.72R                  
$$

MAZALL-112300-
CAPE COD AND THE ISLANDS
  
CITY           SKY/WX    TMP DP  RH WIND       PRES   REMARKS
FALMOUTH       NOT AVBL                                               
HYANNIS        CLOUDY    48  42  80 NE10      29.71S                  
CHATHAM        CLOUDY    44  41  89 E13       29.75R                  
PROVINCETOWN   CLOUDY    43  41  93 NE13      29.77R                  
NANTUCKET      CLOUDY    45  43  93 NE14      29.71R                  
MARTHAS VNYRD  CLOUDY    46  43  89 NE17G28   29.70S                  
$$
 
MAZALL-112300-
CENTRAL AND WESTERN MASSACHUSETTS
  
CITY           SKY/WX    TMP DP  RH WIND       PRES   REMARKS
WORCESTER      CLOUDY    46  39  76 NE13      29.71F                  
FITCHBURG      CLOUDY    48  40  73 VRB7      29.75F                  
ORANGE         CLOUDY    50  39  66 E7        29.73S                  
SPRINGFIELD    CLOUDY    51  41  69 E10       29.71R                  
WESTFIELD      LGT RAIN  50  42  74 E10       29.72R                  
NORTH ADAMS    CLOUDY    54  41  61 E13       29.68R                  
PITTSFIELD     LGT RAIN  50  43  77 E9        29.67R                  
$$
 
RIZALL-112300-
RHODE ISLAND
  
CITY           SKY/WX    TMP DP  RH WIND       PRES   REMARKS
PROVIDENCE     CLOUDY    48  42  80 NE14      29.73R                  
NEWPORT        CLOUDY    48  42  80 NE9       29.70R                  
BLOCK ISLAND   CLOUDY    45  43  93 NE20G29   29.67F                  
SMITHFIELD     CLOUDY    45  43  93 NE8       29.73R                  
WESTERLY       CLOUDY    47  43  86 NE13G22   29.67S                  
$$
 
CTZALL-112300-
CONNECTICUT
  
CITY           SKY/WX    TMP DP  RH WIND       PRES   REMARKS
BRADLEY INTL   CLOUDY    52  42  69 NE8       29.71R                  
HARTFORD       CLOUDY    53  43  68 NE9       29.70R                  
BRIDGEPORT     LGT RAIN  49  46  90 E18       29.63F                  
DANBURY        LGT RAIN  55  50  83 E7        29.63R                  
GROTON         LGT RAIN  50  44  80 NE15      29.67R                  
NEW HAVEN      LGT RAIN  55  50  83 NE13      29.65R                  
CHESTER        LGT RAIN  50  46  87 E10G20    29.68R                  
MERIDEN        CLOUDY    52  43  71 E13G20    29.69R                  
WILLIMANTIC    CLOUDY    49  42  77 NE14      29.70R                  
OXFORD         LGT RAIN  53  49  86 E14G20    29.66R                  
$$

MEZ002-015-021-024-NHZ003-005-008-011-012-014-VTZ005-008-112300-
NORTHERN NEW ENGLAND
  
CITY           SKY/WX    TMP DP  RH WIND       PRES   REMARKS
PORTLAND ME    MOSUNNY   46  39  76 SE6       29.79S                  
BANGOR ME      PTSUNNY   59  29  31 N7        29.76R                  
CONCORD NH     PTSUNNY   53  38  56 SE8       29.75S                  
MANCHESTER NH  PTSUNNY   51  38  60 E10       29.75S                  
NASHUA NH      CLOUDY    48  41  76 E10       29.77S                  
PORTSMOUTH NH  PTSUNNY   44  38  80 E8        29.79S                  
JAFFREY NH     CLOUDY    49  39  68 CALM      29.74S                  
KEENE NH       CLOUDY    52  40  63 NE6       29.73S                  
BURLINGTON VT  PTSUNNY   65  49  56 S6        29.59R                  
MT. WASHINGTON NOT AVBL                                               
$$

NYZ052-076-112300-
EASTERN NEW YORK
  
CITY           SKY/WX    TMP DP  RH WIND       PRES   REMARKS
ALBANY         CLOUDY    60  46  59 SE8       29.62R                  
NEW YORK CITY  LGT RAIN  52  50  93 NE13      29.59R VSB 1/4          
$$
 
ANZALL-112300-
MARINE OBSERVATIONS
  
STATION/POSITION TIME  TEMP    WIND        PRES    VSBY  WAVE
                       AIR SEA DIR/SP/G                  HT/PER
                 (UTC) (F)     (DEG/KT/KT) (MB)    (MI)  (FT/S)
BOSTON BUOY      2150   42 44   50/ 14/ 16 1008.8R         5/ 7
BUZZARDS BAY     2100           50/ 20/ 23 1006.4R
NANTUCKET SOUND  2150      47                N/A           3/ 4
MASS BAY-STELLWA NOT AVBL
ISLE OF SHOALS   2100   41      60/ 12/ 13 1008.2F
S OF BLOCK IS    2126      45                N/A           5/ 4
$$

......................KEY.........................
  SKY/WX - SKY CONDITION/PRESENT WEATHER
  TMP    - TEMPERATURE IN FAHRENHEIT
  DWPT   - DEWPOINT IN FAHRENHEIT
  RH     - RELATIVE HUMIDITY IN PERCENT
  WIND   - DIRECTION AND SPEED IN MPH
  PRES   - MEAN SEA LEVEL PRESSURE IN INCHES OF HG
  WCI    - WIND CHILL INDEX
  VSB    - VISIBILITY IN MILES
  HX     - HEAT INDEX
  TC     - TEMPERATURE IN CELSIUS
  VRB    - VARIABLE WIND DIRECTION
  N/A    - NOT AVAILABLE
  
      

Other recent Regional Weather Roundups

Fri Apr 16, 9:04am

Fri Apr 16, 8:04am

Fri Apr 16, 7:04am

Fri Apr 16, 6:04am

Fri Apr 16, 5:04am

Fri Apr 16, 4:04am

Fri Apr 16, 3:04am

Fri Apr 16, 2:04am

Fri Apr 16, 1:04am

Fri Apr 16, 12:04am

Thu Apr 15, 11:05pm

Thu Apr 15, 10:04pm

Thu Apr 15, 9:04pm

Thu Apr 15, 8:04pm

Thu Apr 15, 7:05pm

Thu Apr 15, 6:04pm

Thu Apr 15, 5:05pm

Thu Apr 15, 4:04pm

Thu Apr 15, 3:05pm

Thu Apr 15, 2:04pm

Thu Apr 15, 1:05pm

Thu Apr 15, 12:04pm

Thu Apr 15, 11:04am

Thu Apr 15, 10:05am

Thu Apr 15, 9:04am

Thu Apr 15, 8:04am

Thu Apr 15, 7:04am

Thu Apr 15, 6:04am

Thu Apr 15, 5:04am

Thu Apr 15, 4:04am

Thu Apr 15, 3:04am

Thu Apr 15, 2:04am

Thu Apr 15, 1:04am

Thu Apr 15, 12:04am

Wed Apr 14, 11:04pm

Wed Apr 14, 10:04pm

Wed Apr 14, 9:04pm

Wed Apr 14, 8:04pm

Wed Apr 14, 7:04pm

Wed Apr 14, 6:04pm

Wed Apr 14, 5:05pm

Wed Apr 14, 4:04pm

Wed Apr 14, 3:05pm

Wed Apr 14, 2:04pm

Wed Apr 14, 1:05pm

Wed Apr 14, 12:04pm

Wed Apr 14, 11:04am

Wed Apr 14, 10:04am

Wed Apr 14, 9:04am

Wed Apr 14, 8:04am

Wed Apr 14, 7:04am

Wed Apr 14, 6:04am

Wed Apr 14, 5:04am

Wed Apr 14, 4:04am

Wed Apr 14, 3:04am

Wed Apr 14, 2:04am

Wed Apr 14, 1:04am

Wed Apr 14, 12:04am

Tue Apr 13, 11:04pm

Tue Apr 13, 10:05pm

Tue Apr 13, 9:05pm

Tue Apr 13, 8:05pm

Tue Apr 13, 7:04pm

Tue Apr 13, 6:04pm

Tue Apr 13, 5:05pm

Tue Apr 13, 4:04pm

Tue Apr 13, 3:04pm

Tue Apr 13, 2:05pm

Tue Apr 13, 1:04pm

Tue Apr 13, 12:05pm

Tue Apr 13, 11:05am

Tue Apr 13, 10:04am

Tue Apr 13, 9:04am

Tue Apr 13, 8:04am

Tue Apr 13, 7:04am

Tue Apr 13, 6:04am

Tue Apr 13, 5:04am

Tue Apr 13, 4:04am

Tue Apr 13, 3:04am

Tue Apr 13, 2:04am

Tue Apr 13, 1:04am

Tue Apr 13, 12:05am

Mon Apr 12, 11:04pm

Mon Apr 12, 10:04pm

Mon Apr 12, 9:04pm

Mon Apr 12, 8:04pm

Mon Apr 12, 7:05pm

Mon Apr 12, 6:04pm

Mon Apr 12, 5:04pm

Mon Apr 12, 4:04pm

Mon Apr 12, 3:05pm

Mon Apr 12, 2:04pm

Mon Apr 12, 1:05pm

Mon Apr 12, 12:04pm

Mon Apr 12, 11:04am

Mon Apr 12, 10:04am

Mon Apr 12, 9:04am

Mon Apr 12, 8:04am

Mon Apr 12, 7:04am

Mon Apr 12, 6:04am

Mon Apr 12, 5:04am

Mon Apr 12, 4:04am

Mon Apr 12, 3:04am

Mon Apr 12, 2:04am

Mon Apr 12, 1:05am

Mon Apr 12, 12:04am

Sun Apr 11, 11:04pm

Sun Apr 11, 10:04pm

Sun Apr 11, 9:04pm

Sun Apr 11, 8:04pm

Sun Apr 11, 7:04pm

Sun Apr 11, 5:05pm

Sun Apr 11, 4:04pm

Sun Apr 11, 3:05pm

Sun Apr 11, 2:05pm

Sun Apr 11, 1:05pm

Sun Apr 11, 12:04pm

Sun Apr 11, 11:05am

Sun Apr 11, 10:05am

Sun Apr 11, 9:04am

Sun Apr 11, 8:04am

Sun Apr 11, 7:04am

Sun Apr 11, 6:04am

Sun Apr 11, 5:04am

Sun Apr 11, 4:04am

Sun Apr 11, 3:04am

Sun Apr 11, 2:04am

Sun Apr 11, 1:05am

Sun Apr 11, 12:04am

Sat Apr 10, 11:05pm

Sat Apr 10, 10:04pm

Sat Apr 10, 9:04pm

Sat Apr 10, 8:04pm

Sat Apr 10, 7:05pm

Sat Apr 10, 6:04pm

Sat Apr 10, 5:04pm

Sat Apr 10, 4:04pm

Sat Apr 10, 3:04pm

Sat Apr 10, 2:05pm

Sat Apr 10, 1:04pm

Sat Apr 10, 12:04pm

Sat Apr 10, 11:04am

Sat Apr 10, 10:04am

Sat Apr 10, 9:04am

Sat Apr 10, 8:04am

Sat Apr 10, 7:04am

Sat Apr 10, 6:04am

Sat Apr 10, 5:04am

Sat Apr 10, 4:04am

Sat Apr 10, 3:04am

Sat Apr 10, 2:04am

Sat Apr 10, 1:05am

Sat Apr 10, 12:04am

Fri Apr 9, 11:04pm

Fri Apr 9, 10:05pm

Fri Apr 9, 9:04pm

Fri Apr 9, 8:05pm

Fri Apr 9, 7:05pm

Fri Apr 9, 6:04pm

Fri Apr 9, 5:04pm

Fri Apr 9, 4:05pm

Fri Apr 9, 3:05pm

Fri Apr 9, 2:04pm

Fri Apr 9, 1:04pm

Fri Apr 9, 12:04pm

Fri Apr 9, 11:05am

Fri Apr 9, 10:04am

Meta data:

ID: a9e544e6-468a-45da-9b8b-878967e285f5
Link: https://api.weather.gov/products/a9e544e6-468a-45da-9b8b-878967e285f5